Location: Altdorf
(49.2862°N, 8.2164°E)
Time: 06:48:08
(UTC+00:00)

Daily predictions for brighter satellites

Satellite Brightness Start Highest point End
(mag) Time Altitude Azimuth Time Altitude Azimuth Time Altitude Azimuth
Cosmos 1707 Rocket 4.4 19:27:07 10° N 19:31:06 34° ENE 19:35:02 10° SE
Cosmos 220 Rocket 4.2 19:27:04 10° NNW 19:31:15 56° ENE 19:35:24 10° SE
Cosmos 1633 3.4 19:28:05 10° SSW 19:31:33 55° WNW 19:35:03 10° N
Cosmos 972 Rocket 4.0 19:28:03 10° NNW 19:33:08 81° WSW 19:38:00 10° SSE
Resurs 01 Rocket 1.9 19:29:01 10° SSE 19:33:19 55° ENE 19:37:41 10° N
Cosmos 1441 Rocket 3.7 19:35:12 10° SSE 19:38:47 40° E 19:42:19 10° NNE
IRIDIUM 114 4.4 19:36:17 10° S 19:41:25 63° E 19:46:35 10° N
Cosmos 614 Rocket 4.3 19:37:29 10° S 19:42:23 46° ESE 19:47:22 10° NNE
IGS 5A 4.4 19:41:19 10° SE 19:45:02 33° ENE 19:48:46 10° N
Cosmos 1900 4.3 19:40:40 10° SSW 19:45:35 74° SE 19:50:39 10° NE
USA 267 3.4 19:41:30 10° ENE 19:47:52 51° SE 19:54:13 10° SSW
GP-B 4.2 19:45:53 10° NNE 19:49:41 27° E 19:53:14 11° SE
IRIDIUM 103 4.3 19:45:20 10° S 19:50:32 75° E 19:55:46 10° N
Cosmos 1821 Rocket 4.0 19:46:44 10° S 19:52:44 63° E 19:58:53 10° NNE
Shenzhou-11 Module 3.3 19:52:53 10° SW 19:54:31 16° S 19:55:30 13° SSE
COSMOS 2406 3.2 19:49:01 10° SSW 19:54:43 67° ESE 20:00:25 10° NNE
CZ-2C R/B 3.7 19:51:08 10° NNE 19:55:49 84° ESE 20:00:22 10° SSW
Cosmos 1743 Rocket 4.4 19:51:30 10° SSW 19:55:52 54° WNW 20:00:17 10° N
SL-16 R/B 3.9 19:52:58 10° N 19:57:15 21° NE 20:01:30 10° E
Intercosmos 25 3.3 19:52:53 10° N 19:57:43 83° E 20:01:07 10° SSE
ERS-1 Rocket 4.0 19:56:08 12° ESE 20:00:10 31° ENE 20:04:33 10° N
Lacrosse 5 3.0 19:55:44 10° NW 20:00:31 39° NNE 20:05:18 10° E
Cosmos 2369 3.8 19:57:05 10° NNW 20:02:51 78° ENE 20:08:05 13° SSE
Cosmos 1862 3.5 20:00:00 10° SSW 20:04:03 78° W 20:08:08 10° N
Sich 1 3.0 20:00:33 10° S 20:04:57 70° E 20:09:23 10° NNE
Cosmos 1818 3.7 20:02:06 10° NW 20:07:34 73° SW 20:12:24 13° SSE
BREEZE-M DEB (TANK) 1.6 20:05:11 10° W 20:08:22 89° S 20:09:54 15° E
IRIDIUM 106 4.5 20:03:39 10° S 20:08:51 78° W 20:14:07 10° N
Cosmos 2082 Rocket 2.7 20:04:42 10° S 20:09:55 39° ESE 20:15:09 10° NE
Cosmos 2278 3.9 20:06:25 10° NNW 20:12:08 65° ENE 20:16:44 16° SE
Cosmos 2123 Rocket 4.1 20:06:12 10° N 20:12:22 64° ENE 20:18:06 12° SSE
Meteor 2-20 4.5 20:07:59 10° N 20:14:11 74° E 20:20:08 11° SSE
Spot 2 Rocket 3.5 20:11:25 13° SSE 20:16:01 70° ENE 20:21:08 10° N
Cosmos 2322 Rocket 3.8 20:15:16 10° NNW 20:19:51 24° NE 20:24:24 10° E
Meteor 1-4 Rocket 2.4 20:16:39 10° N 20:20:08 66° ENE 20:22:26 19° SSE
Cosmos 2239 Rocket 4.4 20:15:56 10° S 20:22:04 87° E 20:28:15 10° N
Cosmos 1184 Rocket 3.6 20:21:02 22° SE 20:22:32 33° E 20:25:32 10° NNE
Cosmos 1190 Rocket 4.0 20:17:30 10° S 20:22:41 61° ESE 20:27:56 10° NNE
CARTOSAT-1 4.2 20:20:05 18° SE 20:22:51 41° ENE 20:26:57 10° N
CZ-2C R/B 4.0 20:18:34 10° N 20:23:24 41° WNW 20:28:13 10° SW
Terra 2.9 20:21:08 17° ESE 20:24:05 31° ENE 20:28:15 10° N
USA 234 3.3 20:18:46 15° ESE 20:24:21 88° SSW 20:30:57 10° WNW
Cosmos 407 Rocket 3.5 20:20:18 10° SSW 20:25:37 78° ESE 20:30:56 10° NNE
Cosmos 1605 Rocket 4.3 20:21:08 13° SSE 20:26:15 45° E 20:32:00 10° NNE
Cosmos 1666 Rocket 3.4 20:22:14 10° S 20:26:32 78° E 20:30:54 10° NNE
Cosmos 1238 Rocket 3.3 20:28:02 23° ESE 20:28:29 24° E 20:30:56 10° NE
Okean 1 4.4 20:26:01 10° N 20:29:38 30° ENE 20:31:27 21° ESE
Meteor 1-27 Rocket 4.1 20:24:56 10° NNW 20:30:48 70° W 20:36:42 10° S
MetOp-B 4.4 20:25:45 10° S 20:31:03 71° WSW 20:36:26 10° NNW
Cosmos 2360 Rocket 4.1 20:29:47 10° N 20:33:48 19° NE 20:37:50 10° E
Cosmos 1437 Rocket 4.2 20:30:58 10° NNE 20:34:04 23° ENE 20:35:27 19° E
BREEZE-M DEB (TANK) 4.4 20:35:20 10° W 20:36:50 11° WSW 20:38:03 10° SW
ERBS 4.2 20:34:47 10° W 20:37:48 31° NNW 20:40:49 10° NE
SPOT 5 2.9 20:35:54 23° SE 20:38:20 50° ENE 20:42:34 10° N
USA 238 DEB 4.1 20:32:30 10° S 20:38:32 39° ESE 20:44:48 10° NE
USA 238 4.1 20:32:38 10° S 20:38:39 39° ESE 20:44:54 10° NE
Cosmos 1980 Rocket 2.2 20:37:36 10° NNW 20:43:19 87° WSW 20:47:05 22° SSE
SPOT 1/Viking Rocket 3.6 20:39:53 17° SSE 20:43:54 85° WSW 20:49:11 10° NNW
Cosmos 1703 Rocket 4.4 20:41:19 10° N 20:45:21 35° ENE 20:47:06 25° ESE
Cosmos 2242 Rocket 4.0 20:41:07 10° N 20:45:26 47° ENE 20:47:29 27° SE
Cosmos 1763 Rocket 4.2 20:43:07 10° NNW 20:48:13 43° ENE 20:51:08 23° ESE
SL-4 R/B 1.8 20:44:36 10° SW 20:48:25 52° SSE 20:51:35 13° ENE
Genesis I 3.1 20:45:08 10° NW 20:49:02 80° SW 20:50:44 32° SSE
BREEZE-M DEB (TANK) 2.6 20:46:20 10° W 20:49:13 89° SSE 20:57:17 10° E
Cosmos 405 Rocket 3.2 20:49:22 32° SE 20:50:17 38° E 20:53:47 10° NNE
Cosmos 1140 Rocket 3.5 20:46:02 10° SSW 20:51:17 84° WNW 20:56:35 10° NNE
ATLAS 5 CENTAUR R/B 4.0 20:46:59 10° WNW 20:51:49 27° WSW 20:57:11 10° S
USA 32 4.0 20:53:02 16° S 20:57:16 86° E 21:02:33 10° N
Cosmos 1697 Rocket 3.7 20:53:39 10° NW 20:58:49 39° WSW 21:03:04 15° S
Cosmos 1633 Rocket 3.6 20:55:31 10° SSW 20:59:53 60° WNW 21:04:17 10° N
Cosmos 1833 Rocket 3.2 20:55:01 10° SW 21:00:34 61° WNW 21:06:10 10° NNE
Meteor 1-18 Rocket 4.2 21:01:15 10° N 21:06:54 76° ENE 21:09:50 29° SSE
Cosmos 1867 3.5 21:01:31 10° SSW 21:06:56 73° SE 21:12:23 10° NE
Okean 1-7 3.3 21:02:51 10° N 21:07:06 51° ENE 21:08:30 36° SE
CENTAUR R/B 3.1 21:04:45 26° SSE 21:07:07 35° ESE 21:13:16 10° NE
Resurs 01 Rocket 4.0 21:07:04 10° SW 21:10:10 19° W 21:13:17 10° NW
Cosmos 1447 Rocket 4.5 21:07:37 10° N 21:14:02 87° E 21:17:47 27° S
FALCON 9 DEB 3.0 21:10:38 10° SW 21:14:06 64° SSE 21:15:22 35° E
Cosmos 1850 Rocket 4.4 21:14:18 33° SSE 21:16:00 43° ESE 21:21:00 10° NE
Meteor 2-4 Rocket 4.0 21:10:57 10° N 21:16:33 53° ENE 21:18:53 32° SE
Cosmos 1515 3.7 21:13:42 10° N 21:17:33 67° ENE 21:18:22 49° SE
SL-27 R/B 4.4 21:19:37 17° ENE 21:19:37 17° ENE 21:20:51 10° NE
Cosmos 676 Rocket 4.2 21:14:52 10° SSW 21:20:12 77° WNW 21:25:35 10° NNE
Cosmos 44 4.1 21:16:01 10° NNW 21:20:38 43° NE 21:23:09 25° E
ATLAS 5 CENTAUR R/B 2.7 21:18:36 10° NNW 21:21:02 40° NE 21:23:25 23° E
Meteor 1-25 Rocket 4.3 21:17:53 16° SSW 21:22:22 78° WNW 21:28:00 10° N
Cosmos 1470 Rocket 4.0 21:19:31 19° SSW 21:22:36 61° WNW 21:26:58 10° N
SWARM C 4.5 21:19:18 10° N 21:22:38 64° E 21:22:47 63° ESE
SWARM A 4.1 21:19:23 10° N 21:22:43 72° E 21:22:57 68° SE
USA 267 3.6 21:24:33 10° NE 21:31:04 69° NNW 21:37:33 10° WSW
NOSS 3-2 (A) 3.3 21:27:14 10° SW 21:32:58 79° SE 21:39:36 10° NE
Cosmos 921 Rocket 3.6 21:29:27 10° NNW 21:33:30 46° WSW 21:34:51 33° SSW
ERS-1 Rocket 3.9 21:36:09 23° SSW 21:38:50 42° W 21:43:37 10° NNW
NOSS 3-2 (C) 3.4 21:35:51 28° S 21:38:54 58° ESE 21:45:19 10° NE
Cosmos 841 Rocket 3.7 21:35:07 10° NNW 21:40:18 60° ENE 21:42:00 40° ESE
Cosmos 540 Rocket 3.7 21:36:36 10° NNW 21:41:44 59° ENE 21:43:22 40° ESE
SL-16 R/B 2.1 21:36:30 10° NNW 21:42:13 85° ENE 21:44:17 41° SSE
Cosmos 468 Rocket 4.2 21:38:37 10° NNW 21:43:54 66° WSW 21:45:45 39° S
Lacrosse 5 1.8 21:38:50 10° NW 21:43:56 88° SSW 21:45:31 45° SE
Cosmos 1741 Rocket 3.9 21:48:23 39° S 21:50:22 78° ESE 21:55:40 10° NNE
Cosmos 1570 Rocket 4.0 21:46:16 10° NNW 21:51:37 75° ENE 21:53:10 46° SE
Cosmos 2219 Rocket 3.9 21:48:22 10° NNW 21:53:04 25° NE 21:56:38 15° E
Cosmos 2208 Rocket 4.1 21:48:25 10° NNW 21:53:42 66° ENE 21:55:11 45° SE
Cosmos 2082 Rocket 3.4 21:48:36 10° WSW 21:53:59 42° NW 21:59:24 10° NNE
Cosmos 1814 Rocket 4.1 21:48:54 10° NNW 21:54:05 63° ENE 21:55:32 44° ESE
Cosmos 2237 4.5 21:52:54 10° NNW 21:58:36 61° ENE 22:00:35 39° ESE
Terra 2.8 22:00:02 28° SW 22:01:44 38° W 22:06:11 10° NNW
Cosmos 2322 Rocket 2.1 21:58:51 10° NNW 22:04:34 81° WSW 22:06:13 49° SSE
EO 1 Del DPAF 4.5 22:02:23 10° NNE 22:04:57 29° ENE 22:04:57 29° ENE
USA 234 4.2 22:06:06 27° SSW 22:07:55 32° SW 22:13:39 10° WNW
Cosmos 2100 Rocket 4.0 22:05:35 35° SSW 22:08:21 81° W 22:14:33 10° N
Meteor 1-11 Rocket 3.8 22:09:09 48° SE 22:10:22 59° E 22:16:01 10° NNE
Cosmos 1437 Rocket 4.0 22:06:58 10° NNW 22:10:23 31° W 22:10:50 30° WSW
Cosmos 1242 Rocket 3.6 22:09:07 10° N 22:12:07 37° NE 22:12:07 37° NE
Cosmos 1869 Rocket 3.8 22:13:01 49° SW 22:13:59 64° WNW 22:18:26 10° N
Cosmos 2360 Rocket 2.2 22:13:06 10° NNW 22:18:49 76° ENE 22:20:20 50° SE
COSMOS 2428 4.0 22:14:30 10° NNW 22:19:40 33° NE 22:22:36 21° E
Geosat 4.1 22:20:48 53° SSW 22:21:40 63° WSW 22:26:41 10° NW
ATLAS 3B R/B 2.8 22:21:12 43° SE 22:22:00 45° ESE 22:28:15 10° NE
Iridium 4 Rocket 3.5 22:21:45 47° WSW 22:22:30 54° W 22:26:40 10° N
Cosmos 2173 Rocket 4.1 22:21:11 34° SSW 22:23:57 67° WNW 22:30:05 10° N
Cosmos 1500 3.9 22:25:10 43° W 22:25:24 44° WNW 22:29:01 10° N
CRYOSAT 2 4.2 22:21:07 10° N 22:26:02 89° E 22:26:46 65° S
Cosmos 1980 Rocket 4.3 22:23:17 10° WNW 22:26:28 15° W 22:28:51 12° SW
SL-4 R/B 2.5 22:24:16 10° W 22:27:13 48° WNW 22:27:13 48° WNW
ALOS 2 2.8 22:27:44 55° E 22:28:01 56° ENE 22:32:20 10° N
Cosmos 1725 Rocket 3.9 22:27:20 48° S 22:29:13 80° E 22:35:34 10° NNE
USA 238 DEB 4.2 22:22:38 10° WSW 22:29:14 60° NW 22:36:10 10° NE
USA 238 4.1 22:22:46 10° WSW 22:29:20 60° NW 22:36:17 10° NE
Cosmos 1674 Rocket 3.6 22:28:54 10° N 22:33:13 63° ENE 22:33:13 63° ENE
SL-08 R/B 4.3 22:32:19 50° S 22:34:03 87° E 22:40:11 10° N
Cosmos 1536 2.9 22:34:39 71° NNE 22:34:39 71° NNE 22:38:17 10° NNE
Cosmos 1666 3.0 22:37:32 63° NNW 22:37:32 63° NNW 22:40:50 10° N
Cosmos 1743 4.1 22:38:17 31° ENE 22:38:17 31° ENE 22:40:59 10° NNE
Cosmos 2333 Rocket 2.8 22:33:40 10° NNW 22:39:18 50° NE 22:41:19 35° ESE
Cosmos 1356 4.4 22:41:30 47° N 22:41:30 47° N 22:44:04 10° N
Cosmos 1271 Rocket 3.6 22:37:38 10° N 22:40:47 40° NE 22:40:47 40° NE
Cosmos 2016 Rocket 4.1 22:39:51 41° SSW 22:42:10 72° WNW 22:48:34 10° N
Cosmos 2237 Rocket 4.1 22:38:41 10° N 22:43:10 23° NE 22:47:32 10° E
Cosmos 2061 Rocket 4.1 22:41:23 42° SSW 22:43:34 71° W 22:49:47 10° N
Lacrosse 4 Rocket 3.0 22:45:23 25° ENE 22:45:23 25° ENE 22:47:40 10° NE
MOS 1-B Rocket 4.1 22:38:59 10° N 22:44:40 65° WNW 22:46:43 39° SW
Cosmos 2221 Rocket 4.2 22:41:56 10° NNW 22:46:13 47° W 22:46:29 46° WSW
Cosmos 1733 Rocket 3.0 22:50:59 79° W 22:51:01 79° W 22:55:26 10° N
Cosmos 1066 Rocket 4.2 22:47:00 10° NNW 22:52:45 75° W 22:53:46 59° SSW
SL-27 R/B 4.2 22:53:08 26° WNW 22:53:12 26° WNW 22:56:04 10° N
Meteor 1-23 Rocket 4.3 22:48:43 10° NNW 22:54:33 77° W 22:55:42 58° SSW
Cosmos 44 Rocket 4.3 22:50:50 10° NNW 22:55:34 42° NE 22:57:31 29° E
Thor Agena Rocket 3.7 22:50:52 10° N 22:55:55 68° WNW 22:57:00 52° SW
CENTAUR R/B 3.0 22:51:50 13° WSW 22:57:23 62° NW 23:04:41 10° NE
Cosmos 968 Rocket 3.9 22:59:01 45° E 22:59:01 45° E 23:03:44 10° NE
Cosmos 1975 4.2 23:02:22 29° ENE 23:02:22 29° ENE 23:05:13 10° NNE
Cosmos 44 4.1 22:57:18 10° NW 23:01:33 38° WSW 23:01:33 38° WSW
SL-24 DEB 4.4 23:00:29 10° NNE 23:05:14 60° E 23:05:18 60° E
Cosmos 1378 4.0 23:09:35 10° NNW 23:12:29 47° NW 23:12:29 47° NW
USA 267 4.3 23:07:26 10° ENE 23:13:37 46° N 23:19:47 10° WNW
Cosmos 2233 Rocket 4.1 23:14:31 50° SSW 23:16:15 74° WNW 23:22:36 10° N
Cosmos 1464 Rocket 4.4 23:15:36 42° SE 23:16:54 49° E 23:22:50 10° NNE
Cosmos 1842 3.9 23:14:19 10° N 23:17:41 50° NE 23:17:41 50° NE
Cosmos 1908 Rocket 3.6 23:18:33 74° NE 23:18:33 74° NE 23:22:38 10° NNE
Helios 1B rocket 4.2 23:19:11 10° NE 23:21:49 22° E 23:21:49 22° E
Cosmos 2227 Rocket 4.3 23:22:42 13° E 23:23:09 13° E 23:25:39 10° ENE
Meteor 1-21 4.5 23:18:18 10° N 23:24:06 63° ENE 23:25:21 50° SE
SL-16 R/B 4.0 23:21:58 10° WNW 23:25:35 17° W 23:26:08 17° WSW
Lacrosse 5 3.7 23:22:32 10° WNW 23:24:40 18° W 23:24:40 18° W
Cosmos 2322 3.7 23:23:26 10° NW 23:29:02 62° WSW 23:29:31 60° SW
Cosmos 1378 Rocket 4.2 23:24:46 10° NNW 23:28:49 45° W 23:28:49 45° W
Cosmos 1833 4.3 23:28:45 50° WSW 23:30:09 70° WNW 23:35:50 10° NNE
COSMOS 2487 3.8 23:32:14 37° NNW 23:32:14 37° NNW 23:34:43 10° NNE
Nadezhda 4 Rocket 4.4 23:29:57 10° N 23:36:10 57° ENE 23:38:03 41° SE
Cosmos 2219 Rocket 2.1 23:31:56 10° NNW 23:37:38 76° WSW 23:38:19 66° SSW
Cosmos 1975 Rocket 3.0 23:38:03 10° N 23:42:25 83° NNE 23:42:25 83° NNE
Okean 2 Rocket 4.1 23:45:22 35° E 23:45:22 35° E 23:49:26 10° NNE
Cosmos 2034 Rocket 4.3 23:43:53 46° SE 23:45:20 57° E 23:51:30 10° NNE
Cosmos 1503 Rocket 3.9 23:45:55 70° SSE 23:46:24 77° ESE 23:51:48 10° NNE
Cosmos 2322 Rocket 4.2 23:44:49 10° WNW 23:47:43 14° W 23:48:01 14° W
Cosmos 1072 Rocket 4.3 23:46:51 59° S 23:48:08 86° E 23:54:16 10° N
YAOGAN 11 4.2 23:48:26 68° W 23:48:26 68° W 23:52:53 10° NNW
Helios 1A 3.6 23:49:48 49° WNW 23:49:48 49° WNW 23:53:24 10° NNW
Landsat 4 4.4 23:46:11 10° NNE 23:49:12 51° NE 23:49:12 51° NE
SL-16 R/B 3.9 23:46:15 15° ESE 23:50:40 33° ENE 23:56:07 10° N
ERBS 4.0 23:48:39 10° NW 23:51:02 32° N 23:51:02 32° N
Cosmos 1300 Rocket 4.5 23:52:28 37° E 23:52:28 37° E 23:56:18 10° NNE
Cosmos 1486 Rocket 4.3 23:52:11 50° WSW 23:53:09 58° WNW 23:58:19 10° NNE
CZ-2D R/B 4.1 23:49:32 10° NE 23:53:15 18° E 23:54:54 16° ESE
SL-16 R/B 4.0 23:48:35 10° NNW 23:53:28 28° NE 23:58:20 10° ESE
Cosmos 1544 4.1 23:54:38 42° NNW 23:54:38 42° NNW 23:57:27 10° N
Sich 1 Rocket 3.7 23:55:30 67° ENE 23:55:30 67° ENE 23:59:42 10° NNE
